Time,TemperatureF,DewpointF,PressureIn,WindDirection,WindDirectionDegrees,WindSpeedMPH,WindSpeedGustMPH,Humidity,HourlyPrecipIn,Conditions,Clouds,dailyrainin,SoftwareType,DateUTC
2013-02-11 00:00:00,10.9,4.5,30.31,SW,220,0.0,2.0,75,0.00,,,0.24,Wunderground v.1.15,2013-02-11 05:00:00,
2013-02-11 00:05:00,10.7,4.3,30.31,SW,220,0.0,2.0,75,0.00,,,0.00,Wunderground v.1.15,2013-02-11 05:05:00,
2013-02-11 00:10:00,10.5,4.1,30.31,SW,220,0.0,2.0,75,0.00,,,0.00,Wunderground v.1.15,2013-02-11 05:10:00,
2013-02-11 00:15:00,10.4,4.0,30.31,SW,220,0.0,2.0,75,0.00,,,0.00,Wunderground v.1.15,2013-02-11 05:15:00,
2013-02-11 00:20:00,10.2,3.8,30.31,SW,220,0.0,2.0,75,0.00,,,0.00,Wunderground v.1.15,2013-02-11 05:20:00,
2013-02-11 00:25:00,10.0,3.7,30.31,SW,220,0.0,2.0,75,0.00,,,0.00,Wunderground v.1.15,2013-02-11 05:25:00,
2013-02-11 00:30:00,9.9,3.8,30.31,SW,220,0.0,2.0,76,0.00,,,0.00,Wunderground v.1.15,2013-02-11 05:30:00,
2013-02-11 00:40:00,9.5,3.5,30.31,SW,220,0.0,2.0,76,0.00,,,0.00,Wunderground v.1.15,2013-02-11 05:40:00,
2013-02-11 00:45:00,9.5,3.5,30.31,SW,220,0.0,2.0,76,0.00,,,0.00,Wunderground v.1.15,2013-02-11 05:45:00,
2013-02-11 00:50:00,9.3,3.5,30.31,SW,220,0.0,2.0,77,0.00,,,0.00,Wunderground v.1.15,2013-02-11 05:50:00,
2013-02-11 01:00:00,9.2,3.4,30.30,SW,220,0.0,0.0,77,0.00,,,0.00,Wunderground v.1.15,2013-02-11 06:00:00,
2013-02-11 01:10:00,9.0,3.5,30.30,SW,220,0.0,0.0,78,0.00,,,0.00,Wunderground v.1.15,2013-02-11 06:10:00,
2013-02-11 01:15:00,9.0,3.5,30.28,SW,220,0.0,0.0,78,0.00,,,0.00,Wunderground v.1.15,2013-02-11 06:15:00,
2013-02-11 01:20:00,8.8,3.3,30.28,SW,220,0.0,0.0,78,0.00,,,0.00,Wunderground v.1.15,2013-02-11 06:20:00,
2013-02-11 01:25:00,8.8,3.6,30.28,SW,220,0.0,0.0,79,0.00,,,0.00,Wunderground v.1.15,2013-02-11 06:25:00,
2013-02-11 01:35:00,8.8,3.9,30.28,SW,220,0.0,0.0,80,0.00,,,0.00,Wunderground v.1.15,2013-02-11 06:35:00,
2013-02-11 01:40:00,8.6,3.7,30.28,SW,220,0.0,0.0,80,0.00,,,0.00,Wunderground v.1.15,2013-02-11 06:40:00,
2013-02-11 01:45:00,8.6,3.7,30.28,SW,220,0.0,0.0,80,0.00,,,0.00,Wunderground v.1.15,2013-02-11 06:45:00,
2013-02-11 01:50:00,8.6,3.7,30.28,SW,220,0.0,0.0,80,0.00,,,0.00,Wunderground v.1.15,2013-02-11 06:50:00,
2013-02-11 01:55:00,8.6,3.7,30.28,SW,220,0.0,0.0,80,0.00,,,0.00,Wunderground v.1.15,2013-02-11 06:55:00,
2013-02-11 02:05:00,8.6,4.0,30.26,SW,220,0.0,0.0,81,0.00,,,0.00,Wunderground v.1.15,2013-02-11 07:05:00,
2013-02-11 02:10:00,8.6,4.0,30.26,SW,220,0.0,0.0,81,0.00,,,0.00,Wunderground v.1.15,2013-02-11 07:10:00,
2013-02-11 02:15:00,8.6,4.0,30.26,SW,220,0.0,0.0,81,0.00,,,0.00,Wunderground v.1.15,2013-02-11 07:15:00,
2013-02-11 02:20:00,8.6,4.0,30.26,SW,220,0.0,0.0,81,0.00,,,0.00,Wunderground v.1.15,2013-02-11 07:20:00,
2013-02-11 02:25:00,8.6,4.0,30.26,SW,220,0.0,0.0,81,0.00,,,0.00,Wunderground v.1.15,2013-02-11 07:25:00,
2013-02-11 02:35:00,8.6,4.0,30.26,SW,220,0.0,0.0,81,0.00,,,0.00,Wunderground v.1.15,2013-02-11 07:35:00,
2013-02-11 02:40:00,8.6,4.0,30.26,SW,220,0.0,0.0,81,0.00,,,0.00,Wunderground v.1.15,2013-02-11 07:40:00,
2013-02-11 02:45:00,8.6,4.2,30.25,SW,220,0.0,0.0,82,0.00,,,0.00,Wunderground v.1.15,2013-02-11 07:45:00,
2013-02-11 02:50:00,8.6,4.2,30.25,SW,220,0.0,0.0,82,0.00,,,0.00,Wunderground v.1.15,2013-02-11 07:50:00,
2013-02-11 02:55:00,8.6,4.2,30.25,SW,220,0.0,0.0,82,0.00,,,0.00,Wunderground v.1.15,2013-02-11 07:55:00,
2013-02-11 03:00:00,8.6,4.2,30.24,SW,220,0.0,0.0,82,0.00,,,0.00,Wunderground v.1.15,2013-02-11 08:00:00,
2013-02-11 03:05:00,8.6,4.2,30.24,SW,220,0.0,0.0,82,0.00,,,0.00,Wunderground v.1.15,2013-02-11 08:05:00,
2013-02-11 03:15:00,8.8,4.7,30.24,SW,220,0.0,0.0,83,0.00,,,0.00,Wunderground v.1.15,2013-02-11 08:15:00,
2013-02-11 03:20:00,8.8,4.7,30.24,SW,220,0.0,0.0,83,0.00,,,0.00,Wunderground v.1.15,2013-02-11 08:20:00,
2013-02-11 03:25:00,8.8,4.7,30.24,SW,220,0.0,0.0,83,0.00,,,0.00,Wunderground v.1.15,2013-02-11 08:25:00,
2013-02-11 03:30:00,8.8,4.7,30.24,SW,220,0.0,0.0,83,0.00,,,0.00,Wunderground v.1.15,2013-02-11 08:30:00,
2013-02-11 03:35:00,8.8,4.7,30.24,SW,220,0.0,0.0,83,0.00,,,0.00,Wunderground v.1.15,2013-02-11 08:35:00,
2013-02-11 03:45:00,8.8,4.7,30.24,SW,220,0.0,0.0,83,0.00,,,0.00,Wunderground v.1.15,2013-02-11 08:45:00,
2013-02-11 03:50:00,9.0,4.9,30.24,SW,220,0.0,0.0,83,0.00,,,0.00,Wunderground v.1.15,2013-02-11 08:50:00,
2013-02-11 03:55:00,9.0,5.1,30.24,SW,220,0.0,0.0,84,0.00,,,0.00,Wunderground v.1.15,2013-02-11 08:55:00,
2013-02-11 04:00:00,9.0,5.1,30.24,SW,220,0.0,0.0,84,0.00,,,0.00,Wunderground v.1.15,2013-02-11 09:00:00,
2013-02-11 04:05:00,9.2,5.3,30.24,SW,220,0.0,0.0,84,0.00,,,0.00,Wunderground v.1.15,2013-02-11 09:05:00,
2013-02-11 04:10:00,9.2,5.6,30.24,SW,220,0.0,0.0,85,0.00,,,0.00,Wunderground v.1.15,2013-02-11 09:10:00,
2013-02-11 04:20:00,9.5,5.9,30.23,SW,220,0.0,0.0,85,0.00,,,0.00,Wunderground v.1.15,2013-02-11 09:20:00,
2013-02-11 04:25:00,9.5,5.9,30.23,SW,220,0.0,0.0,85,0.00,,,0.00,Wunderground v.1.15,2013-02-11 09:25:00,
2013-02-11 04:30:00,9.7,6.4,30.22,SW,220,0.0,0.0,86,0.00,,,0.00,Wunderground v.1.15,2013-02-11 09:30:00,
2013-02-11 04:35:00,9.9,6.6,30.22,SW,220,0.0,0.0,86,0.00,,,0.00,Wunderground v.1.15,2013-02-11 09:35:00,
2013-02-11 04:45:00,10.0,6.6,30.21,SW,220,0.0,0.0,86,0.00,,,0.00,Wunderground v.1.15,2013-02-11 09:45:00,
2013-02-11 04:50:00,10.2,6.8,30.21,SW,220,0.0,0.0,86,0.00,,,0.00,Wunderground v.1.15,2013-02-11 09:50:00,
2013-02-11 04:55:00,10.2,6.8,30.21,SW,220,0.0,0.0,86,0.00,,,0.00,Wunderground v.1.15,2013-02-11 09:55:00,
2013-02-11 05:05:00,10.5,7.4,30.20,SW,220,0.0,0.0,87,0.00,,,0.00,Wunderground v.1.15,2013-02-11 10:05:00,
2013-02-11 05:10:00,10.7,7.6,30.20,SW,220,0.0,0.0,87,0.00,,,0.00,Wunderground v.1.15,2013-02-11 10:10:00,
2013-02-11 05:15:00,10.7,7.6,30.19,SW,220,0.0,0.0,87,0.00,,,0.00,Wunderground v.1.15,2013-02-11 10:15:00,
2013-02-11 05:25:00,11.1,8.0,30.19,SW,220,0.0,0.0,87,0.00,,,0.00,Wunderground v.1.15,2013-02-11 10:25:00,
2013-02-11 05:30:00,11.2,8.1,30.19,SW,220,0.0,0.0,87,0.00,,,0.00,Wunderground v.1.15,2013-02-11 10:30:00,
2013-02-11 05:35:00,11.4,8.3,30.19,SW,220,0.0,0.0,87,0.00,,,0.00,Wunderground v.1.15,2013-02-11 10:35:00,
2013-02-11 05:40:00,11.4,8.3,30.19,SW,220,0.0,0.0,87,0.00,,,0.00,Wunderground v.1.15,2013-02-11 10:40:00,
2013-02-11 05:45:00,11.6,8.5,30.19,SW,220,0.0,0.0,87,0.00,,,0.00,Wunderground v.1.15,2013-02-11 10:45:00,
2013-02-11 05:50:00,11.7,8.8,30.19,SW,220,0.0,0.0,88,0.00,,,0.00,Wunderground v.1.15,2013-02-11 10:50:00,
2013-02-11 06:00:00,11.9,9.0,30.20,SW,220,0.0,0.0,88,0.00,,,0.00,Wunderground v.1.15,2013-02-11 11:00:00,
2013-02-11 06:05:00,12.1,9.2,30.20,SW,220,0.0,0.0,88,0.00,,,0.00,Wunderground v.1.15,2013-02-11 11:05:00,
2013-02-11 06:10:00,12.1,9.0,30.20,SW,220,0.0,0.0,87,0.00,,,0.00,Wunderground v.1.15,2013-02-11 11:10:00,
2013-02-11 06:15:00,12.3,9.2,30.20,SW,220,0.0,0.0,87,0.00,,,0.00,Wunderground v.1.15,2013-02-11 11:15:00,
2013-02-11 06:20:00,12.4,9.3,30.20,SW,220,0.0,0.0,87,0.00,,,0.00,Wunderground v.1.15,2013-02-11 11:20:00,
2013-02-11 06:30:00,12.4,9.3,30.19,SW,220,0.0,0.0,87,0.00,,,0.00,Wunderground v.1.15,2013-02-11 11:30:00,
2013-02-11 06:35:00,12.6,9.5,30.19,SW,220,0.0,0.0,87,0.00,,,0.00,Wunderground v.1.15,2013-02-11 11:35:00,
2013-02-11 06:40:00,12.6,9.5,30.19,SW,220,0.0,0.0,87,0.00,,,0.00,Wunderground v.1.15,2013-02-11 11:40:00,
2013-02-11 06:45:00,12.8,9.7,30.18,SW,220,0.0,0.0,87,0.00,,,0.00,Wunderground v.1.15,2013-02-11 11:45:00,
2013-02-11 06:50:00,12.8,9.7,30.18,SW,220,0.0,0.0,87,0.00,,,0.00,Wunderground v.1.15,2013-02-11 11:50:00,
2013-02-11 06:55:00,12.9,9.8,30.18,SW,220,0.0,0.0,87,0.00,,,0.00,Wunderground v.1.15,2013-02-11 11:55:00,
2013-02-11 07:05:00,13.1,10.0,30.17,SW,220,0.0,0.0,87,0.00,,,0.00,Wunderground v.1.15,2013-02-11 12:05:00,
2013-02-11 07:10:00,13.1,10.0,30.17,SW,220,0.0,0.0,87,0.00,,,0.00,Wunderground v.1.15,2013-02-11 12:10:00,
2013-02-11 07:15:00,13.5,10.4,30.17,SW,220,0.0,0.0,87,0.00,,,0.00,Wunderground v.1.15,2013-02-11 12:15:00,
2013-02-11 07:20:00,13.5,10.4,30.17,SW,220,0.0,0.0,87,0.00,,,0.00,Wunderground v.1.15,2013-02-11 12:20:00,
2013-02-11 07:30:00,14.0,10.8,30.17,SW,220,0.0,0.0,87,0.00,,,0.00,Wunderground v.1.15,2013-02-11 12:30:00,
2013-02-11 07:35:00,14.1,10.9,30.17,SW,220,0.0,0.0,87,0.00,,,0.00,Wunderground v.1.15,2013-02-11 12:35:00,
2013-02-11 07:45:00,14.4,11.0,30.16,SW,220,0.0,0.0,86,0.00,,,0.00,Wunderground v.1.15,2013-02-11 12:45:00,
2013-02-11 07:50:00,14.6,11.2,30.16,SW,220,0.0,0.0,86,0.00,,,0.00,Wunderground v.1.15,2013-02-11 12:50:00,
2013-02-11 07:55:00,14.9,11.2,30.16,SW,220,0.0,0.0,85,0.00,,,0.00,Wunderground v.1.15,2013-02-11 12:55:00,
2013-02-11 08:00:00,14.9,11.5,30.15,SW,220,0.0,0.0,86,0.00,,,0.00,Wunderground v.1.15,2013-02-11 13:00:00,
2013-02-11 08:10:00,15.4,11.7,30.15,SW,220,0.0,0.0,85,0.00,,,0.00,Wunderground v.1.15,2013-02-11 13:10:00,
2013-02-11 08:15:00,15.4,11.7,30.15,SW,220,0.0,0.0,85,0.00,,,0.00,Wunderground v.1.15,2013-02-11 13:15:00,
2013-02-11 08:20:00,15.6,11.9,30.15,SW,220,0.0,0.0,85,0.00,,,0.00,Wunderground v.1.15,2013-02-11 13:20:00,
2013-02-11 08:25:00,15.7,12.0,30.15,SW,220,0.0,0.0,85,0.00,,,0.00,Wunderground v.1.15,2013-02-11 13:25:00,
2013-02-11 08:30:00,16.1,12.4,30.14,SW,220,0.0,0.0,85,0.00,,,0.00,Wunderground v.1.15,2013-02-11 13:30:00,
2013-02-11 08:35:00,16.2,12.7,30.14,SW,220,0.0,0.0,86,0.00,,,0.00,Wunderground v.1.15,2013-02-11 13:35:00,
2013-02-11 08:45:00,16.7,13.0,30.14,SW,220,0.0,0.0,85,0.00,,,0.00,Wunderground v.1.15,2013-02-11 13:45:00,
2013-02-11 08:50:00,16.9,13.2,30.14,SW,220,0.0,0.0,85,0.00,,,0.00,Wunderground v.1.15,2013-02-11 13:50:00,
2013-02-11 08:55:00,17.0,12.7,30.14,SW,220,0.0,0.0,83,0.00,,,0.00,Wunderground v.1.15,2013-02-11 13:55:00,
2013-02-11 09:00:00,17.2,12.9,30.12,SW,220,0.0,0.0,83,0.00,,,0.00,Wunderground v.1.15,2013-02-11 14:00:00,
2013-02-11 09:05:00,17.5,13.2,30.12,SW,220,0.0,0.0,83,0.00,,,0.00,Wunderground v.1.15,2013-02-11 14:05:00,
2013-02-11 09:15:00,18.0,13.7,30.10,SW,220,0.0,0.0,83,0.00,,,0.00,Wunderground v.1.15,2013-02-11 14:15:00,
2013-02-11 09:20:00,18.3,14.3,30.10,SW,220,0.0,0.0,84,0.00,,,0.00,Wunderground v.1.15,2013-02-11 14:20:00,
2013-02-11 09:25:00,18.6,14.6,30.10,SW,220,0.0,0.0,84,0.00,,,0.00,Wunderground v.1.15,2013-02-11 14:25:00,
2013-02-11 09:30:00,18.8,14.8,30.09,SW,220,0.0,0.0,84,0.00,,,0.00,Wunderground v.1.15,2013-02-11 14:30:00,
2013-02-11 09:35:00,18.9,14.9,30.09,SW,220,0.0,0.0,84,0.00,,,0.00,Wunderground v.1.15,2013-02-11 14:35:00,
2013-02-11 09:40:00,19.1,15.1,30.09,SW,220,0.0,0.0,84,0.00,,,0.00,Wunderground v.1.15,2013-02-11 14:40:00,
2013-02-11 09:50:00,19.4,15.6,30.07,SW,220,0.0,0.0,85,0.00,,,0.00,Wunderground v.1.15,2013-02-11 14:50:00,
2013-02-11 09:55:00,19.5,15.7,30.07,SW,220,0.0,0.0,85,0.00,,,0.00,Wunderground v.1.15,2013-02-11 14:55:00,
2013-02-11 10:00:00,19.7,15.9,30.07,SW,220,0.0,0.0,85,0.00,,,0.00,Wunderground v.1.15,2013-02-11 15:00:00,
2013-02-11 10:05:00,19.9,16.4,30.07,SW,220,0.0,0.0,86,0.00,,,0.00,Wunderground v.1.15,2013-02-11 15:05:00,
2013-02-11 10:10:00,20.0,16.5,30.07,SW,220,0.0,0.0,86,0.00,,,0.00,Wunderground v.1.15,2013-02-11 15:10:00,
2013-02-11 10:20:00,20.5,17.2,30.06,SW,220,0.0,0.0,87,0.00,,,0.00,Wunderground v.1.15,2013-02-11 15:20:00,
2013-02-11 10:25:00,20.6,17.3,30.06,SW,220,0.0,0.0,87,0.00,,,0.00,Wunderground v.1.15,2013-02-11 15:25:00,
2013-02-11 10:30:00,20.8,17.5,30.05,SW,220,0.0,0.0,87,0.00,,,0.00,Wunderground v.1.15,2013-02-11 15:30:00,
2013-02-11 10:35:00,21.1,17.8,30.05,SW,220,0.0,0.0,87,0.00,,,0.00,Wunderground v.1.15,2013-02-11 15:35:00,
2013-02-11 10:40:00,21.4,18.1,30.05,SW,220,0.0,0.0,87,0.00,,,0.00,Wunderground v.1.15,2013-02-11 15:40:00,
2013-02-11 10:50:00,21.9,18.9,30.04,SW,220,0.0,0.0,88,0.00,,,0.00,Wunderground v.1.15,2013-02-11 15:50:00,
2013-02-11 10:55:00,22.1,19.1,30.04,SW,220,0.0,0.0,88,0.00,,,0.00,Wunderground v.1.15,2013-02-11 15:55:00,
2013-02-11 11:05:00,22.7,19.9,30.01,SW,220,0.0,0.0,89,0.00,,,0.00,Wunderground v.1.15,2013-02-11 16:05:00,
2013-02-11 11:10:00,22.9,19.9,30.01,SW,220,0.0,0.0,88,0.00,,,0.00,Wunderground v.1.15,2013-02-11 16:10:00,
2013-02-11 11:15:00,22.9,20.1,30.00,SW,220,0.0,0.0,89,0.00,,,0.00,Wunderground v.1.15,2013-02-11 16:15:00,
2013-02-11 11:20:00,23.2,20.4,30.00,SW,220,0.0,0.0,89,0.00,,,0.00,Wunderground v.1.15,2013-02-11 16:20:00,
2013-02-11 11:30:00,23.3,20.5,29.98,SW,220,0.0,0.0,89,0.00,,,0.00,Wunderground v.1.15,2013-02-11 16:30:00,
2013-02-11 11:35:00,23.3,20.5,29.98,SW,220,0.0,0.0,89,0.00,,,0.00,Wunderground v.1.15,2013-02-11 16:35:00,
2013-02-11 11:40:00,23.9,21.1,29.98,SW,220,0.0,0.0,89,0.00,,,0.00,Wunderground v.1.15,2013-02-11 16:40:00,
2013-02-11 11:45:00,23.9,21.1,29.96,SW,220,0.0,0.0,89,0.00,,,0.00,Wunderground v.1.15,2013-02-11 16:45:00,
2013-02-11 11:50:00,23.9,21.1,29.96,SW,220,0.0,0.0,89,0.00,,,0.00,Wunderground v.1.15,2013-02-11 16:50:00,
2013-02-11 12:00:00,23.9,21.1,29.93,SW,220,0.0,0.0,89,0.00,,,0.00,Wunderground v.1.15,2013-02-11 17:00:00,
2013-02-11 12:05:00,23.9,21.1,29.93,SW,220,0.0,0.0,89,0.00,,,0.00,Wunderground v.1.15,2013-02-11 17:05:00,
2013-02-11 12:10:00,23.9,21.1,29.93,SW,220,0.0,0.0,89,0.00,,,0.00,Wunderground v.1.15,2013-02-11 17:10:00,
2013-02-11 12:15:00,23.9,21.1,29.92,SW,220,0.0,0.0,89,0.00,,,0.00,Wunderground v.1.15,2013-02-11 17:15:00,
2013-02-11 12:20:00,23.9,21.1,29.92,SW,220,0.0,0.0,89,0.00,,,0.00,Wunderground v.1.15,2013-02-11 17:20:00,
2013-02-11 12:25:00,23.9,21.1,29.92,SW,220,0.0,0.0,89,0.00,,,0.00,Wunderground v.1.15,2013-02-11 17:25:00,
2013-02-11 12:35:00,23.9,21.1,29.90,SW,220,0.0,0.0,89,0.00,,,0.00,Wunderground v.1.15,2013-02-11 17:35:00,
2013-02-11 12:40:00,27.3,24.5,29.90,SW,220,0.0,0.0,89,0.00,,,0.00,Wunderground v.1.15,2013-02-11 17:40:00,
2013-02-11 12:45:00,27.3,24.5,29.87,SW,220,0.0,0.0,89,0.00,,,0.00,Wunderground v.1.15,2013-02-11 17:45:00,
2013-02-11 12:50:00,27.8,25.0,29.87,SW,220,0.0,0.0,89,0.00,,,0.00,Wunderground v.1.15,2013-02-11 17:50:00,
2013-02-11 12:55:00,28.2,26.7,29.87,SW,220,0.0,0.0,94,0.00,,,0.00,Wunderground v.1.15,2013-02-11 17:55:00,
2013-02-11 13:05:00,28.2,26.7,29.85,SW,220,0.0,0.0,94,0.00,,,0.00,Wunderground v.1.15,2013-02-11 18:05:00,
2013-02-11 13:10:00,28.2,26.7,29.85,SW,220,0.0,0.0,94,0.00,,,0.00,Wunderground v.1.15,2013-02-11 18:10:00,
2013-02-11 13:15:00,28.2,26.7,29.83,SW,220,0.0,0.0,94,0.00,,,0.00,Wunderground v.1.15,2013-02-11 18:15:00,
2013-02-11 13:20:00,28.2,26.7,29.83,SW,220,0.0,0.0,94,0.00,,,0.00,Wunderground v.1.15,2013-02-11 18:20:00,
2013-02-11 13:25:00,28.2,26.7,29.83,SW,220,0.0,0.0,94,0.00,,,0.00,Wunderground v.1.15,2013-02-11 18:25:00,
2013-02-11 13:30:00,28.2,26.7,29.81,SW,220,0.0,0.0,94,0.00,,,0.00,Wunderground v.1.15,2013-02-11 18:30:00,
2013-02-11 13:40:00,28.2,26.7,29.81,SW,220,0.0,0.0,94,0.00,,,0.00,Wunderground v.1.15,2013-02-11 18:40:00,
2013-02-11 13:45:00,-999.9,-99.9,29.81,North,32767,-999.0,0.0,255,-99.99,,,0.00,Wunderground v.1.15,2013-02-11 18:45:00,
2013-02-11 13:50:00,-999.9,-99.9,29.81,North,32767,-999.0,0.0,255,-99.99,,,0.00,Wunderground v.1.15,2013-02-11 18:50:00,
2013-02-11 13:55:00,-999.9,-99.9,29.81,North,32767,-999.0,0.0,255,-99.99,,,0.00,Wunderground v.1.15,2013-02-11 18:55:00,
2013-02-11 14:00:00,-999.9,-99.9,29.79,North,32767,-999.0,0.0,255,-99.99,,,0.00,Wunderground v.1.15,2013-02-11 19:00:00,
2013-02-11 14:05:00,-999.9,-99.9,29.79,North,32767,-999.0,0.0,255,-99.99,,,0.00,Wunderground v.1.15,2013-02-11 19:05:00,
2013-02-11 14:15:00,-999.9,-99.9,29.78,North,32767,-999.0,0.0,255,-99.99,,,0.00,Wunderground v.1.15,2013-02-11 19:15:00,
2013-02-11 14:20:00,-999.9,-99.9,29.78,North,32767,-999.0,0.0,255,-99.99,,,0.00,Wunderground v.1.15,2013-02-11 19:20:00,
2013-02-11 14:25:00,-999.9,-99.9,29.78,North,32767,-999.0,0.0,255,-99.99,,,0.00,Wunderground v.1.15,2013-02-11 19:25:00,
2013-02-11 14:30:00,-999.9,-99.9,29.78,North,32767,-999.0,0.0,255,-99.99,,,0.00,Wunderground v.1.15,2013-02-11 19:30:00,
2013-02-11 14:35:00,-999.9,-99.9,29.78,North,32767,-999.0,0.0,255,-99.99,,,0.00,Wunderground v.1.15,2013-02-11 19:35:00,
2013-02-11 14:40:00,-999.9,-99.9,29.78,North,32767,-999.0,0.0,255,-99.99,,,0.00,Wunderground v.1.15,2013-02-11 19:40:00,
2013-02-11 14:45:00,-999.9,-99.9,29.77,North,32767,-999.0,0.0,255,-99.99,,,0.00,Wunderground v.1.15,2013-02-11 19:45:00,
2013-02-11 14:50:00,-999.9,-99.9,29.77,North,32767,-999.0,0.0,255,-99.99,,,0.00,Wunderground v.1.15,2013-02-11 19:50:00,
2013-02-11 14:55:00,-999.9,-99.9,29.77,North,32767,-999.0,0.0,255,-99.99,,,0.00,Wunderground v.1.15,2013-02-11 19:55:00,
2013-02-11 15:05:00,-999.9,-99.9,29.77,North,32767,-999.0,0.0,255,-99.99,,,0.00,Wunderground v.1.15,2013-02-11 20:05:00,
2013-02-11 15:10:00,-999.9,-99.9,29.77,North,32767,-999.0,0.0,255,-99.99,,,0.00,Wunderground v.1.15,2013-02-11 20:10:00,
2013-02-11 15:20:00,-999.9,-99.9,29.76,North,32767,-999.0,0.0,255,-99.99,,,0.00,Wunderground v.1.15,2013-02-11 20:20:00,
2013-02-11 15:25:00,-999.9,-99.9,29.76,SW,220,0.0,0.0,255,0.00,,,0.00,Wunderground v.1.15,2013-02-11 20:25:00,
2013-02-11 15:30:00,32.2,30.9,29.74,SW,220,0.0,0.0,95,0.00,,,0.00,Wunderground v.1.15,2013-02-11 20:30:00,
2013-02-11 15:35:00,32.2,30.9,29.74,SW,220,0.0,0.0,95,0.00,,,0.00,Wunderground v.1.15,2013-02-11 20:35:00,
2013-02-11 15:40:00,32.2,30.9,29.74,SW,220,0.0,0.0,95,0.00,,,0.00,Wunderground v.1.15,2013-02-11 20:40:00,
2013-02-11 15:45:00,32.2,30.9,29.75,SW,220,0.0,0.0,95,0.00,,,0.00,Wunderground v.1.15,2013-02-11 20:45:00,
2013-02-11 15:55:00,32.2,30.9,29.75,SW,220,0.0,0.0,95,0.00,,,0.00,Wunderground v.1.15,2013-02-11 20:55:00,
2013-02-11 16:00:00,32.2,30.9,29.73,SW,220,0.0,0.0,95,0.00,,,0.00,Wunderground v.1.15,2013-02-11 21:00:00,
2013-02-11 16:05:00,32.2,30.9,29.73,SW,220,0.0,0.0,95,0.00,,,0.00,Wunderground v.1.15,2013-02-11 21:05:00,
2013-02-11 16:10:00,32.2,30.9,29.73,SW,220,0.0,0.0,95,0.00,,,0.00,Wunderground v.1.15,2013-02-11 21:10:00,
2013-02-11 16:15:00,32.5,31.2,29.68,WSW,244,0.0,0.0,95,0.00,,,0.00,Wunderground v.1.15,2013-02-11 21:15:00,
2013-02-11 16:20:00,32.5,31.5,29.68,WSW,244,0.0,0.0,96,0.00,,,0.00,Wunderground v.1.15,2013-02-11 21:20:00,
2013-02-11 16:25:00,32.5,31.5,29.68,WSW,244,0.0,0.0,96,0.00,,,0.00,Wunderground v.1.15,2013-02-11 21:25:00,
2013-02-11 16:30:00,32.5,31.5,29.69,WSW,244,0.0,0.0,96,0.00,,,0.00,Wunderground v.1.15,2013-02-11 21:30:00,
2013-02-11 16:40:00,32.5,31.5,29.69,WSW,244,0.0,0.0,96,0.00,,,0.00,Wunderground v.1.15,2013-02-11 21:40:00,
2013-02-11 16:45:00,32.4,31.4,29.69,WSW,244,0.0,0.0,96,0.00,,,0.00,Wunderground v.1.15,2013-02-11 21:45:00,
2013-02-11 16:50:00,32.4,31.4,29.69,WSW,244,0.0,0.0,96,0.00,,,0.00,Wunderground v.1.15,2013-02-11 21:50:00,
2013-02-11 17:00:00,32.4,31.4,29.68,WSW,244,0.0,0.0,96,0.00,,,0.00,Wunderground v.1.15,2013-02-11 22:00:00,
2013-02-11 17:05:00,32.4,31.4,29.68,WSW,244,0.0,0.0,96,0.00,,,0.00,Wunderground v.1.15,2013-02-11 22:05:00,
2013-02-11 17:10:00,32.4,31.4,29.68,WSW,244,0.0,0.0,96,0.00,,,0.00,Wunderground v.1.15,2013-02-11 22:10:00,
2013-02-11 17:15:00,32.4,31.4,29.67,WSW,244,0.0,0.0,96,0.00,,,0.00,Wunderground v.1.15,2013-02-11 22:15:00,
2013-02-11 17:20:00,32.4,31.4,29.67,WSW,244,0.0,0.0,96,0.00,,,0.00,Wunderground v.1.15,2013-02-11 22:20:00,
2013-02-11 17:25:00,32.2,31.2,29.67,WSW,244,0.0,0.0,96,0.00,,,0.00,Wunderground v.1.15,2013-02-11 22:25:00,
2013-02-11 17:35:00,32.2,31.2,29.67,WSW,244,0.0,0.0,96,0.00,,,0.00,Wunderground v.1.15,2013-02-11 22:35:00,
2013-02-11 17:40:00,32.2,31.2,29.67,WSW,244,0.0,0.0,96,0.00,,,0.00,Wunderground v.1.15,2013-02-11 22:40:00,
2013-02-11 17:45:00,32.2,31.2,29.66,WSW,244,0.0,0.0,96,0.00,,,0.00,Wunderground v.1.15,2013-02-11 22:45:00,
2013-02-11 17:50:00,32.2,31.2,29.66,WSW,244,0.0,0.0,96,0.00,,,0.00,Wunderground v.1.15,2013-02-11 22:50:00,
2013-02-11 17:55:00,32.2,31.2,29.66,WSW,244,0.0,0.0,96,0.00,,,0.00,Wunderground v.1.15,2013-02-11 22:55:00,
2013-02-11 18:00:00,32.2,31.2,29.66,WSW,244,0.0,0.0,96,0.00,,,0.00,Wunderground v.1.15,2013-02-11 23:00:00,
2013-02-11 18:05:00,32.2,31.2,29.66,WSW,244,0.0,0.0,96,0.00,,,0.00,Wunderground v.1.15,2013-02-11 23:05:00,
2013-02-11 18:15:00,32.1,31.1,29.68,WSW,244,0.0,0.0,96,0.00,,,0.00,Wunderground v.1.15,2013-02-11 23:15:00,
2013-02-11 18:20:00,32.1,31.1,29.68,SW,234,0.0,1.0,96,0.00,,,0.00,Wunderground v.1.15,2013-02-11 23:20:00,
2013-02-11 18:25:00,32.2,31.2,29.68,SW,234,0.0,1.0,96,0.00,,,0.00,Wunderground v.1.15,2013-02-11 23:25:00,
2013-02-11 18:30:00,32.2,31.2,29.67,SW,234,0.0,0.0,96,0.00,,,0.00,Wunderground v.1.15,2013-02-11 23:30:00,
2013-02-11 18:40:00,32.2,31.2,29.67,SW,234,0.0,0.0,96,0.00,,,0.00,Wunderground v.1.15,2013-02-11 23:40:00,
2013-02-11 18:45:00,32.2,31.2,29.66,SW,234,0.0,0.0,96,0.00,,,0.00,Wunderground v.1.15,2013-02-11 23:45:00,
2013-02-11 18:50:00,32.2,31.2,29.66,SW,234,0.0,0.0,96,0.00,,,0.00,Wunderground v.1.15,2013-02-11 23:50:00,
2013-02-11 18:55:00,32.2,31.2,29.66,SW,234,0.0,0.0,96,0.00,,,0.00,Wunderground v.1.15,2013-02-11 23:55:00,
2013-02-11 19:00:00,32.2,31.2,29.66,SW,234,0.0,0.0,96,0.00,,,0.00,Wunderground v.1.15,2013-02-12 00:00:00,
2013-02-11 19:05:00,32.1,31.1,29.66,SW,234,0.0,0.0,96,0.00,,,0.00,Wunderground v.1.15,2013-02-12 00:05:00,
2013-02-11 19:15:00,32.1,31.1,29.65,SW,234,0.0,0.0,96,0.00,,,0.00,Wunderground v.1.15,2013-02-12 00:15:00,
2013-02-11 19:20:00,32.2,31.2,29.65,SW,234,0.0,0.0,96,0.00,,,0.00,Wunderground v.1.15,2013-02-12 00:20:00,
2013-02-11 19:30:00,32.1,31.1,29.63,SW,234,0.0,0.0,96,0.00,,,0.00,Wunderground v.1.15,2013-02-12 00:30:00,
2013-02-11 19:35:00,32.1,31.1,29.63,SW,234,0.0,0.0,96,0.00,,,0.00,Wunderground v.1.15,2013-02-12 00:35:00,
2013-02-11 19:40:00,32.1,31.1,29.63,SW,234,0.0,0.0,96,0.00,,,0.00,Wunderground v.1.15,2013-02-12 00:40:00,
2013-02-11 19:50:00,32.1,31.1,29.63,SW,234,0.0,0.0,96,0.00,,,0.00,Wunderground v.1.15,2013-02-12 00:50:00,
2013-02-11 19:55:00,32.1,31.1,29.63,SW,234,0.0,0.0,96,0.00,,,0.00,Wunderground v.1.15,2013-02-12 00:55:00,
2013-02-11 20:00:00,32.1,31.1,29.62,SW,234,0.0,0.0,96,0.00,,,0.00,Wunderground v.1.15,2013-02-12 01:00:00,
2013-02-11 20:05:00,32.1,31.1,29.62,SW,234,0.0,0.0,96,0.00,,,0.00,Wunderground v.1.15,2013-02-12 01:05:00,
2013-02-11 20:10:00,32.1,31.1,29.62,SW,234,0.0,0.0,96,0.00,,,0.00,Wunderground v.1.15,2013-02-12 01:10:00,
2013-02-11 20:20:00,32.1,31.1,29.61,SW,234,0.0,0.0,96,0.00,,,0.00,Wunderground v.1.15,2013-02-12 01:20:00,
2013-02-11 20:25:00,32.1,31.1,29.61,SW,234,0.0,0.0,96,0.00,,,0.00,Wunderground v.1.15,2013-02-12 01:25:00,
2013-02-11 20:30:00,32.1,31.1,29.60,SW,234,0.0,0.0,96,0.00,,,0.00,Wunderground v.1.15,2013-02-12 01:30:00,
2013-02-11 20:35:00,32.1,31.1,29.60,SW,234,0.0,0.0,96,0.00,,,0.00,Wunderground v.1.15,2013-02-12 01:35:00,
2013-02-11 20:40:00,32.1,31.1,29.60,SW,234,0.0,0.0,96,0.00,,,0.00,Wunderground v.1.15,2013-02-12 01:40:00,
2013-02-11 20:45:00,32.1,31.3,29.59,SW,234,0.0,0.0,97,0.00,,,0.00,Wunderground v.1.15,2013-02-12 01:45:00,
2013-02-11 20:55:00,32.1,31.3,29.59,SW,234,0.0,0.0,97,0.00,,,0.00,Wunderground v.1.15,2013-02-12 01:55:00,
2013-02-11 21:00:00,32.1,31.3,29.59,SW,234,0.0,0.0,97,0.00,,,0.00,Wunderground v.1.15,2013-02-12 02:00:00,
2013-02-11 21:10:00,32.1,31.3,29.59,SW,234,0.0,0.0,97,0.00,,,0.00,Wunderground v.1.15,2013-02-12 02:10:00,
2013-02-11 21:15:00,32.1,31.3,29.59,SW,234,0.0,0.0,97,0.00,,,0.00,Wunderground v.1.15,2013-02-12 02:15:00,
2013-02-11 21:20:00,32.1,31.3,29.59,SW,234,0.0,0.0,97,0.00,,,0.00,Wunderground v.1.15,2013-02-12 02:20:00,
2013-02-11 21:30:00,32.1,31.3,29.59,SW,234,0.0,0.0,97,0.00,,,0.00,Wunderground v.1.15,2013-02-12 02:30:00,
2013-02-11 21:35:00,32.1,31.3,29.59,SW,234,0.0,0.0,97,0.00,,,0.00,Wunderground v.1.15,2013-02-12 02:35:00,
2013-02-11 21:40:00,32.1,31.3,29.59,SW,234,0.0,0.0,97,0.00,,,0.00,Wunderground v.1.15,2013-02-12 02:40:00,
2013-02-11 21:45:00,32.1,31.3,29.60,SW,234,0.0,0.0,97,0.00,,,0.01,Wunderground v.1.15,2013-02-12 02:45:00,
2013-02-11 21:50:00,32.1,31.3,29.60,SW,234,0.0,0.0,97,0.00,,,0.01,Wunderground v.1.15,2013-02-12 02:50:00,
2013-02-11 22:00:00,32.1,31.3,29.59,SW,234,0.0,0.0,97,0.00,,,0.01,Wunderground v.1.15,2013-02-12 03:00:00,
2013-02-11 22:05:00,32.1,31.3,29.59,SW,234,0.0,0.0,97,0.00,,,0.01,Wunderground v.1.15,2013-02-12 03:05:00,
2013-02-11 22:10:00,32.1,31.3,29.59,SW,234,0.0,0.0,97,0.00,,,0.01,Wunderground v.1.15,2013-02-12 03:10:00,
2013-02-11 22:15:00,32.1,31.3,29.57,SW,234,0.0,0.0,97,0.00,,,0.01,Wunderground v.1.15,2013-02-12 03:15:00,
2013-02-11 22:20:00,32.1,31.3,29.57,SW,234,0.0,0.0,97,0.00,,,0.01,Wunderground v.1.15,2013-02-12 03:20:00,
2013-02-11 22:25:00,32.1,31.3,29.57,SW,234,0.0,0.0,97,0.00,,,0.01,Wunderground v.1.15,2013-02-12 03:25:00,
2013-02-11 22:35:00,32.1,31.3,29.57,SW,234,0.0,0.0,97,0.00,,,0.01,Wunderground v.1.15,2013-02-12 03:35:00,
2013-02-11 22:40:00,32.1,31.3,29.57,SW,234,0.0,0.0,97,0.00,,,0.01,Wunderground v.1.15,2013-02-12 03:40:00,
2013-02-11 22:45:00,32.1,31.3,29.57,SW,234,0.0,0.0,97,0.00,,,0.01,Wunderground v.1.15,2013-02-12 03:45:00,
2013-02-11 22:50:00,32.1,31.3,29.57,SW,234,0.0,0.0,97,0.00,,,0.01,Wunderground v.1.15,2013-02-12 03:50:00,
2013-02-11 22:55:00,32.1,31.3,29.57,SW,234,0.0,0.0,97,0.00,,,0.01,Wunderground v.1.15,2013-02-12 03:55:00,
2013-02-11 23:05:00,32.1,31.3,29.56,SW,234,0.0,0.0,97,0.00,,,0.01,Wunderground v.1.15,2013-02-12 04:05:00,
2013-02-11 23:10:00,32.1,31.3,29.56,SW,234,0.0,0.0,97,0.00,,,0.01,Wunderground v.1.15,2013-02-12 04:10:00,
2013-02-11 23:15:00,32.1,31.3,29.57,SW,234,0.0,0.0,97,0.00,,,0.01,Wunderground v.1.15,2013-02-12 04:15:00,
2013-02-11 23:20:00,32.1,31.3,29.57,SW,234,0.0,0.0,97,0.00,,,0.01,Wunderground v.1.15,2013-02-12 04:20:00,
2013-02-11 23:25:00,32.1,31.3,29.57,SW,234,0.0,0.0,97,0.00,,,0.01,Wunderground v.1.15,2013-02-12 04:25:00,
2013-02-11 23:30:00,32.1,31.3,29.57,SW,234,0.0,0.0,97,0.00,,,0.01,Wunderground v.1.15,2013-02-12 04:30:00,
2013-02-11 23:40:00,32.1,31.3,29.57,SW,234,0.0,0.0,97,0.00,,,0.01,Wunderground v.1.15,2013-02-12 04:40:00,
2013-02-11 23:45:00,32.1,31.3,29.57,SW,234,0.0,0.0,97,0.00,,,0.01,Wunderground v.1.15,2013-02-12 04:45:00,
2013-02-11 23:50:00,32.1,31.3,29.57,SW,234,0.0,0.0,97,0.00,,,0.01,Wunderground v.1.15,2013-02-12 04:50:00,